Temperature
20 19 19 19 19 19 19 19 19 19 19 19 19 19 19 19 19 19 19 19 19 19 19 19 19 19 19 19 18 18 18 19 19 19 18 18 18 18 18 18 18 17 18
20 19 19 19 19 19 19 19 19 19 19 19 19 19 19 19 19 19 19 19 19 19 19 19 19 19 19 19 18 18 18 18 18 18 18 18 18 18 18 18 18 17 18
20 19 19 19 19 19 19 19 19 19 19 19 19 19 19 19 19 19 19 19 19 19 19 19 19 19 19 19 18 18 18 18 18 18 18 18 18 18 18 18 18 18 18
20 19 19 19 19 20 19 19 19 19 19 19 19 19 19 19 19 19 19 19 19 19 19 19 19 19 19 19 18 18 18 18 18 18 18 18 17 18 18 18 18 18 18
20 19 19 20 19 20 19 19 19 19 19 19 19 19 19 19 19 19 19 19 19 19 19 18 18 18 18 18 18 18 18 18 18 18 18 18 18 18 18 18 18 18 18
20 20 19 20 20 19 19 19 19 19 19 19 19 19 19 19 19 19 19 19 19 19 19 18 18 18 18 18 18 18 18 18 18 18 18 18 18 18 18 18 18 18 18
20 20 19 20 20 19 19 19 19 19 19 19 19 19 19 19 19 19 19 19 19 18 18 18 18 18 19 19 18 18 18 18 18 18 18 18 17 18 18 18 18 18 18
20 20 19 20 19 19 19 19 19 19 19 19 19 19 19 19 19 19 19 19 19 18 18 18 18 18 18 18 18 18 18 18 18 18 18 18 18 18 18 18 18 18 18
20 20 20 19 19 19 19 19 19 19 19 19 19 19 19 19 19 19 19 19 19 18 18 18 18 18 18 18 18 18 18 18 18 18 18 18 18 18 18 18 18 18 18
20 20 20 20 19 19 19 19 19 19 19 19 19 19 19 19 19 19 19 19 19 19 18 18 18 18 18 18 18 18 19 19 18 18 18 18 18 18 18 18 18 18 18
20 20 20 20 20 19 19 19 19 19 19 19 19 19 19 18 18 18 18 19 19 18 18 18 18 18 18 18 18 18 18 18 18 18 18 18 18 18 18 18 18 18 17
20 20 20 20 20 20 19 19 19 19 19 18 18 18 18 18 18 18 19 19 19 19 18 18 18 18 18 18 18 18 18 18 19 18 18 18 18 18 18 18 18 18 17
21 20 20 20 20 20 19 19 19 19 19 19 18 18 18 18 18 18 18 19 18 18 18 18 18 18 18 18 18 18 18 18 19 18 18 18 18 18 18 18 18 18 18
20 20 20 20 19 19 19 19 19 19 19 19 18 19 18 18 18 18 18 18 18 18 18 18 18 18 18 18 18 18 18 18 18 18 18 18 18 18 18 18 18 18 18
20 20 20 20 20 20 19 19 19 19 19 19 18 19 18 18 18 18 19 18 18 18 18 18 18 18 18 18 18 18 18 18 18 18 18 18 18 18 18 18 18 18 18
20 20 20 20 20 20 20 19 19 19 19 19 18 18 18 18 18 18 18 18 18 18 18 18 18 18 18 18 18 18 18 18 18 18 18 18 18 18 18 18 18 18 18
20 20 20 20 20 20 19 19 19 19 19 19 18 18 18 18 18 18 18 18 18 18 18 18 18 18 18 18 18 18 18 18 18 18 18 18 18 18 18 18 18 18 18
20 20 20 20 20 20 20 19 19 19 19 18 18 18 18 18 18 18 18 18 18 18 18 18 18 18 18 18 18 18 18 18 18 18 18 18 18 18 18 18 18 18 18
21 20 20 20 20 20 20 19 19 19 18 18 18 18 18 18 18 18 18 18 18 18 18 18 18 18 18 18 18 18 18 18 18 18 18 18 18 18 18 18 18 18 18
21 21 20 20 20 20 20 19 19 19 19 18 18 18 18 18 18 18 18 18 18 18 18 18 18 18 18 18 18 18 18 18 18 18 18 18 18 18 18 17 17 17 18
21 21 21 20 20 20 20 19 19 19 19 18 18 18 18 18 18 18 18 18 18 18 18 18 18 18 18 18 18 18 18 18 18 18 18 18 17 17 17 17 17 17 17
21 21 21 21 20 20 20 20 19 19 19 18 18 18 18 18 18 18 18 18 18 18 18 18 18 18 18 18 18 18 19 19 18 18 18 17 17 17 17 17 17 17 17
21 21 21 21 21 20 20 20 19 19 19 18 18 18 18 18 18 18 18 18 18 17 18 18 18 17 18 17 17 18 19 19 19 18 17 17 17 17 17 17 17 17 17
21 21 21 21 21 20 20 19 19 19 19 19 18 18 18 18 18 18 18 18 18 17 17 17 17 17 17 18 17 17 17 17 18 19 18 18 17 17 17 17 17 17 17
22 21 21 21 21 21 20 20 19 19 19 19 18 18 18 18 18 18 18 18 18 17 17 17 17 17 17 17 17 17 17 17 18 18 18 18 18 17 17 17 17 17 17
22 21 21 21 21 21 20 20 19 19 19 19 18 18 18 18 18 18 18 18 17 17 17 17 17 17 17 17 17 17 17 17 18 18 18 18 18 17 17 16 16 16 16
Wind_Speed
5 7 8 6 7 7 7 7 8 8 8 8 9 10 11 11 11 11 11 11 11 10 10 10 10 10 10 10 10 10 10 11 11 10 9 9 9 8 9 9 9 9 11
6 8 9 6 7 7 8 8 8 8 8 8 8 9 10 10 11 11 11 11 10 10 9 9 10 10 10 9 9 10 10 10 11 10 10 10 9 8 8 7 3 8 11
7 8 9 7 7 7 8 8 8 8 8 8 8 9 9 9 10 11 10 10 9 9 8 9 9 9 10 9 9 9 9 10 10 10 10 9 10 9 8 7 6 8 9
8 8 8 8 8 8 8 8 7 7 8 8 8 8 8 9 9 10 10 9 8 8 8 8 8 9 10 9 9 9 9 9 9 9 8 7 9 11 9 8 7 7 8
8 7 10 8 8 8 8 8 8 7 7 8 8 7 8 9 9 9 9 8 8 7 7 7 8 8 8 8 8 8 8 8 9 9 6 6 7 11 9 8 8 8 8
8 8 11 8 8 8 8 8 8 7 7 7 7 7 8 8 9 8 8 7 7 6 7 7 7 7 7 7 7 8 8 8 9 7 6 6 6 11 9 9 8 8 8
8 8 11 10 9 8 8 8 8 7 7 7 7 7 7 7 7 7 7 6 6 6 7 7 6 7 6 6 7 7 8 8 7 5 5 5 5 10 10 9 9 8 8
8 8 10 11 9 9 8 7 7 7 6 6 6 6 6 6 6 6 6 5 4 4 5 5 6 6 6 6 6 7 8 8 7 5 5 5 8 10 9 9 9 9 9
8 8 8 9 9 9 8 7 6 6 5 5 5 5 4 4 5 5 5 5 4 4 4 4 5 6 7 7 7 7 8 8 7 5 6 5 9 9 9 9 9 9 9
7 7 7 6 6 7 8 7 6 5 4 4 4 4 3 4 5 5 6 5 5 4 4 4 5 6 6 7 8 8 9 10 8 7 6 6 10 9 9 9 10 10 10
6 5 5 5 5 5 5 7 7 6 5 5 5 4 4 3 3 5 4 4 4 4 4 4 4 5 6 8 9 9 10 7 7 5 5 7 9 10 10 10 10 10 10
6 5 4 4 4 5 4 5 4 5 5 3 3 2 2 2 1 2 5 5 4 4 5 5 5 7 8 6 9 11 7 7 5 5 4 8 9 9 9 10 10 11 11
6 5 5 4 3 3 3 3 3 3 3 3 3 1 1 1 1 1 1 4 4 4 3 5 6 4 3 2 3 5 5 5 5 4 4 8 8 9 9 9 9 10 10
5 5 4 4 4 2 2 2 2 2 2 2 3 1 1 1 1 1 1 1 1 1 0 1 1 1 1 2 3 3 4 4 4 3 4 7 7 8 8 8 9 10 11
5 5 4 4 3 3 2 1 2 2 1 2 2 2 0 1 1 1 1 1 2 1 0 1 1 1 2 2 2 2 2 3 3 3 3 7 8 8 8 8 9 10 11
5 5 4 4 4 3 3 2 1 2 2 1 2 2 1 1 1 1 1 1 1 1 1 1 0 0 1 1 1 1 2 2 2 2 3 6 8 8 8 8 9 9 11
6 6 5 5 5 4 3 3 2 2 2 2 2 2 1 1 1 1 1 1 2 2 1 0 0 0 0 1 1 1 1 1 1 2 2 2 5 7 7 7 8 10 11
6 6 5 5 5 5 4 2 2 2 2 2 2 2 1 2 2 1 2 2 2 2 1 1 1 0 0 0 1 1 1 1 2 2 2 2 2 3 6 7 7 8 10
7 7 6 6 6 5 5 3 2 2 1 1 1 1 1 1 1 1 2 2 2 1 2 2 2 1 0 0 1 1 1 1 2 2 1 2 2 2 2 6 7 7 7
7 7 7 7 6 6 5 4 2 2 2 1 1 1 1 1 1 2 1 1 2 1 1 1 1 1 0 1 1 1 1 1 1 1 2 2 2 2 2 3 5 7 8
8 8 8 7 7 6 4 4 4 3 2 1 1 2 1 1 1 1 1 1 2 1 2 2 1 0 0 0 1 1 2 2 2 1 1 1 1 2 2 2 3 3 6
9 8 8 8 7 7 5 4 3 3 2 1 1 2 1 1 1 1 1 1 1 1 1 2 2 1 1 0 1 1 1 2 2 2 2 2 2 2 2 3 3 3 3
9 9 8 8 8 7 6 5 4 3 2 2 1 1 1 1 0 1 1 2 2 2 1 1 2 1 1 1 1 2 1 0 0 2 1 1 1 2 3 3 4 4 4
9 9 9 9 8 8 7 6 6 4 3 3 2 1 1 1 0 0 1 1 2 1 1 1 2 2 2 1 0 1 2 2 2 1 2 2 2 2 2 2 3 4 4
9 9 9 9 9 8 8 7 7 5 3 3 3 2 1 1 1 0 0 1 1 1 2 3 2 3 2 2 2 1 1 1 3 3 3 2 2 2 2 2 2 3 3
9 9 9 9 8 8 9 8 7 6 4 4 4 3 2 2 1 1 1 1 1 1 1 1 2 2 2 3 3 2 2 2 2 3 4 4 3 2 2 2 3 3 4
Wind_Direction
124 120 117 113 112 114 113 115 114 118 123 127 132 139 140 140 145 144 143 141 140 142 144 146 145 142 140 139 135 134 134 134 133 129 127 129 130 131 136 143 155 140 126
124 125 125 117 113 113 116 116 114 119 124 128 133 138 142 141 144 146 143 143 142 143 146 148 147 146 144 143 140 139 139 142 142 141 145 145 142 141 142 148 156 119 133
123 126 131 120 120 116 118 120 117 121 123 126 134 139 142 143 143 146 143 143 143 145 146 149 150 150 149 148 147 146 147 150 152 157 170 161 146 150 150 151 139 135 141
124 131 125 121 122 122 123 123 121 122 122 125 132 137 139 139 139 141 148 149 147 147 147 147 151 152 152 155 155 153 155 160 165 178 181 159 150 147 156 154 151 153 153
125 127 119 126 123 122 125 126 127 126 123 124 127 130 135 138 137 138 146 150 150 149 151 150 150 153 157 160 162 161 163 169 180 199 175 157 150 145 159 159 157 163 163
128 128 120 129 125 122 123 126 128 127 127 124 126 126 126 133 137 142 145 145 154 158 156 155 155 160 159 160 165 167 171 182 195 187 173 171 157 150 163 169 168 171 170
127 124 123 127 124 122 121 122 128 129 127 125 123 125 126 129 136 143 143 149 156 164 170 166 164 163 166 167 173 179 184 196 207 188 175 179 158 153 170 178 177 179 178
125 124 124 130 126 122 120 120 125 129 127 125 123 122 127 130 140 145 151 156 156 155 163 175 176 175 178 179 181 183 191 210 199 193 188 180 150 164 182 187 185 184 187
122 123 124 132 135 135 126 122 122 126 129 127 125 124 127 134 143 153 159 162 166 170 182 189 186 187 188 190 191 191 198 220 216 195 196 181 153 175 191 195 194 194 192
120 121 124 127 127 136 136 133 132 131 132 135 132 130 143 164 166 169 173 172 178 183 197 200 195 193 194 198 199 199 205 219 214 205 202 170 159 182 198 200 200 200 197
126 127 124 126 131 131 130 132 147 149 149 165 159 161 191 175 156 169 142 159 188 196 202 199 197 190 198 198 201 209 216 218 211 214 209 148 168 190 203 203 204 201 200
137 134 128 130 131 135 126 131 147 156 144 157 131 142 158 131 136 136 144 181 196 205 204 198 201 205 215 199 192 207 219 219 218 213 187 154 180 198 206 205 205 203 201
136 136 137 133 131 131 128 132 132 139 137 144 124 132 103 111 116 108 157 177 191 203 199 184 205 211 215 211 211 209 219 228 221 219 174 162 186 203 210 209 207 206 204
143 142 136 134 140 137 127 126 137 132 122 114 125 148 121 82 35 47 21 56 157 174 168 237 220 201 222 218 219 226 220 228 225 219 180 172 189 205 212 214 209 207 208
155 151 147 144 145 144 147 177 141 127 117 121 120 135 90 66 42 43 46 19 1 10 59 249 222 182 197 199 214 217 223 236 242 233 187 175 192 205 211 215 213 211 210
169 166 162 166 160 160 162 173 171 158 146 134 125 104 64 44 30 3 32 21 7 358 5 319 327 202 231 183 218 239 247 235 227 239 225 188 189 198 211 217 217 213 213
178 177 178 176 172 177 183 192 173 178 160 153 131 115 81 54 44 358 1 352 359 357 352 331 21 343 231 209 211 220 219 243 220 222 226 215 197 186 196 209 214 211 209
186 181 186 186 175 176 183 196 184 188 169 163 154 138 95 50 28 337 348 355 355 335 353 346 336 2 52 12 278 257 210 196 209 213 206 200 214 206 185 192 204 209 211
191 189 188 189 182 177 174 179 183 174 174 161 146 109 104 93 39 324 350 0 329 343 337 332 35 342 85 167 194 197 232 222 212 199 207 204 194 221 204 175 188 196 200
194 193 191 187 182 178 173 171 180 177 177 186 149 105 85 97 55 313 291 345 315 335 339 7 7 358 293 232 215 156 205 192 195 183 225 198 200 211 212 199 194 189 191
198 196 193 192 183 181 179 183 182 181 183 163 166 141 149 158 150 296 322 7 316 340 338 334 322 256 201 220 199 169 171 177 168 182 206 211 199 203 205 208 223 220 186
197 199 195 192 187 187 182 184 182 173 170 162 162 138 171 196 263 197 334 314 342 332 342 341 330 329 0 14 299 269 197 171 182 172 191 201 223 223 220 215 215 222 233
200 198 197 192 186 188 182 177 169 167 169 168 181 178 173 201 274 350 359 333 346 334 19 358 340 344 344 352 343 307 295 299 94 153 178 195 228 252 247 233 228 222 226
199 194 193 186 183 182 183 186 189 193 191 184 190 182 175 177 197 338 340 351 346 4 17 334 25 331 319 317 291 300 313 330 296 246 204 195 204 241 263 261 247 227 223
198 192 187 182 181 181 185 187 195 200 194 179 175 163 199 168 180 236 284 344 355 8 16 356 358 332 323 315 306 287 267 253 263 275 273 272 250 249 244 247 259 254 236
194 189 181 178 180 180 185 189 193 193 188 181 180 180 198 184 186 196 215 272 297 359 2 329 324 321 327 321 308 302 289 285 279 275 272 269 275 273 266 261 260 259 250
Height
1519 1518 1517 1518 1518 1518 1519 1519 1519 1519 1520 1520 1521 1521 1522 1523 1524 1525 1526 1527 1528 1530 1531 1532 1534 1535 1536 1537 1538 1540 1541 1542 1543 1544 1546 1547 1548 1549 1549 1550 1552 1553 1553
1519 1519 1518 1519 1519 1520 1520 1521 1521 1521 1521 1521 1522 1523 1523 1524 1525 1526 1527 1528 1529 1531 1532 1533 1534 1535 1537 1538 1539 1541 1542 1543 1544 1545 1546 1548 1548 1549 1550 1551 1552 1554 1553
1520 1520 1520 1520 1521 1521 1521 1522 1522 1522 1522 1522 1523 1524 1525 1525 1526 1527 1528 1529 1530 1531 1533 1534 1535 1536 1537 1538 1540 1541 1543 1544 1545 1546 1548 1550 1550 1550 1551 1552 1552 1553 1554
1521 1522 1522 1521 1522 1522 1523 1523 1523 1523 1524 1524 1524 1525 1526 1526 1527 1528 1529 1530 1531 1532 1533 1534 1535 1536 1537 1539 1540 1542 1543 1545 1546 1547 1549 1551 1551 1551 1551 1552 1553 1553 1554
1523 1523 1522 1522 1523 1524 1524 1525 1525 1525 1525 1525 1526 1526 1527 1527 1528 1529 1530 1531 1532 1533 1534 1535 1535 1537 1538 1540 1541 1542 1544 1545 1546 1548 1550 1551 1552 1551 1552 1552 1553 1553 1554
1524 1525 1524 1524 1524 1525 1525 1526 1526 1526 1527 1527 1527 1527 1528 1528 1529 1530 1531 1531 1532 1533 1534 1535 1536 1537 1538 1540 1541 1542 1544 1545 1547 1549 1550 1551 1552 1551 1551 1552 1553 1554 1555
1525 1526 1526 1525 1526 1526 1526 1527 1528 1528 1528 1528 1529 1529 1529 1530 1530 1531 1531 1532 1533 1534 1534 1536 1537 1538 1539 1540 1541 1542 1544 1545 1547 1549 1550 1551 1551 1551 1552 1552 1553 1554 1555
1526 1527 1527 1527 1527 1527 1528 1528 1529 1529 1530 1530 1530 1530 1531 1531 1531 1532 1533 1533 1534 1534 1535 1536 1537 1538 1539 1540 1541 1542 1543 1545 1547 1549 1550 1551 1550 1551 1551 1552 1553 1553 1554
1528 1529 1529 1529 1529 1529 1529 1530 1530 1531 1531 1531 1531 1532 1532 1532 1533 1533 1533 1534 1534 1535 1536 1536 1537 1538 1539 1539 1541 1542 1543 1544 1547 1549 1550 1550 1549 1550 1551 1551 1552 1553 1554
1529 1530 1531 1531 1532 1532 1532 1531 1531 1532 1532 1532 1532 1533 1533 1533 1533 1533 1534 1534 1535 1535 1536 1536 1537 1538 1538 1539 1540 1541 1543 1544 1547 1548 1549 1549 1548 1549 1550 1551 1551 1552 1553
1531 1532 1532 1533 1533 1533 1534 1533 1533 1533 1533 1533 1534 1534 1534 1535 1535 1535 1535 1535 1535 1535 1536 1536 1537 1537 1538 1538 1539 1541 1542 1544 1546 1547 1548 1547 1547 1548 1549 1550 1550 1551 1552
1531 1532 1533 1533 1534 1535 1535 1534 1534 1535 1535 1535 1535 1535 1535 1535 1535 1536 1535 1535 1535 1535 1536 1536 1537 1537 1538 1539 1539 1540 1542 1544 1545 1546 1546 1545 1546 1547 1548 1549 1549 1550 1551
1532 1533 1534 1534 1535 1535 1535 1536 1536 1536 1536 1536 1536 1536 1536 1536 1536 1536 1536 1536 1536 1536 1536 1537 1537 1538 1539 1539 1540 1540 1541 1543 1544 1545 1544 1544 1545 1545 1546 1547 1548 1549 1550
1533 1533 1534 1535 1535 1535 1536 1537 1537 1537 1537 1537 1537 1537 1537 1537 1537 1537 1536 1537 1537 1537 1536 1537 1537 1537 1538 1538 1539 1540 1540 1541 1542 1543 1542 1542 1543 1544 1545 1545 1546 1547 1548
1533 1534 1534 1535 1535 1535 1536 1537 1538 1538 1538 1538 1538 1537 1537 1538 1538 1537 1536 1537 1537 1537 1537 1537 1537 1537 1537 1538 1538 1539 1539 1540 1541 1541 1541 1541 1542 1542 1543 1544 1544 1545 1546
1533 1534 1534 1535 1535 1536 1536 1537 1538 1539 1538 1539 1539 1538 1538 1538 1538 1538 1537 1537 1538 1537 1537 1536 1536 1536 1537 1537 1537 1538 1538 1539 1539 1540 1540 1540 1540 1541 1541 1542 1543 1543 1544
1532 1533 1534 1535 1535 1536 1536 1537 1538 1539 1539 1539 1539 1539 1538 1539 1538 1538 1538 1537 1538 1537 1536 1536 1536 1536 1536 1536 1537 1537 1537 1538 1538 1538 1539 1539 1539 1539 1539 1540 1541 1542 1542
1532 1532 1533 1535 1535 1535 1536 1537 1538 1539 1539 1539 1539 1539 1538 1538 1538 1538 1538 1538 1537 1537 1537 1536 1536 1535 1535 1535 1536 1536 1536 1536 1537 1537 1538 1538 1538 1538 1538 1538 1539 1540 1541
1530 1531 1532 1533 1534 1535 1536 1536 1537 1538 1538 1539 1539 1539 1538 1538 1538 1539 1539 1538 1538 1537 1537 1536 1535 1535 1535 1534 1534 1535 1535 1536 1536 1536 1536 1537 1537 1537 1537 1536 1537 1538 1538
1529 1529 1531 1532 1533 1534 1535 1536 1537 1537 1538 1538 1538 1538 1538 1538 1538 1539 1539 1538 1538 1538 1537 1536 1535 1534 1534 1534 1534 1534 1534 1535 1535 1535 1535 1535 1535 1535 1536 1536 1536 1536 1536
1527 1528 1529 1531 1532 1533 1534 1535 1536 1537 1537 1538 1538 1537 1537 1537 1538 1538 1539 1538 1537 1537 1536 1536 1535 1535 1535 1534 1534 1534 1534 1534 1534 1534 1534 1534 1534 1534 1534 1534 1535 1535 1535
1524 1526 1527 1529 1530 1532 1533 1534 1535 1536 1536 1537 1537 1536 1536 1537 1537 1537 1537 1538 1537 1537 1536 1535 1535 1535 1535 1534 1534 1534 1534 1535 1534 1533 1533 1533 1533 1533 1533 1534 1533 1533 1534
1522 1523 1525 1527 1529 1530 1531 1533 1534 1534 1535 1536 1536 1536 1536 1536 1537 1536 1536 1537 1536 1537 1536 1535 1534 1534 1535 1534 1534 1534 1534 1533 1533 1533 1532 1532 1532 1532 1532 1532 1532 1532 1532
1520 1522 1523 1525 1526 1528 1530 1531 1532 1533 1534 1535 1535 1536 1536 1536 1536 1536 1535 1535 1535 1536 1535 1535 1534 1534 1534 1534 1534 1533 1533 1533 1532 1532 1532 1532 1531 1531 1530 1531 1530 1530 1530
1518 1520 1521 1522 1524 1526 1528 1529 1531 1532 1533 1534 1535 1535 1535 1535 1535 1535 1535 1535 1534 1535 1534 1534 1533 1533 1533 1533 1533 1533 1532 1532 1532 1531 1530 1531 1530 1530 1529 1529 1528 1528 1528
1516 1518 1519 1520 1521 1524 1526 1527 1529 1530 1531 1532 1533 1533 1534 1534 1534 1534 1534 1534 1534 1534 1533 1533 1532 1532 1532 1531 1531 1531 1531 1531 1530 1530 1529 1528 1528 1528 1527 1527 1527 1526 1526